Weather History for KLDJ - July, 2013

Change the Weather History Date:

Sunday, July 14, 2013

  Actual Average (KEWR) Record (KEWR)
Temperature  
Mean Temperature 84 °F 78 °F  
Max Temperature 92 °F 86 °F 102 °F (1954)
Min Temperature 76 °F 69 °F 55 °F (1940)
Degree Days  
Heating Degree Days 0 0  
Month to date heating degree days 0  
Since 1 June heating degree days 17  
Since 1 July heating degree days 0  
Cooling Degree Days 19 13  
Month to date cooling degree days 170  
Year to date cooling degree days 485  
Since 1 June cooling degree days 409  
Growing Degree Days 34 (Base 50)    
Moisture  
Dew Point 72 °F    
Average Humidity 71    
Maximum Humidity 94    
Minimum Humidity 47    
Precipitation  
Precipitation 0.00 in 0.16 in 1.35 in (1987)
Month to date precipitation 1.98  
Year to date precipitation 24.89  
Snow  
Snow 0.00 in 0.00 in 0.00 in (2002)
Month to date snowfall 0.0  
Since 1 July snowfall 0.0  
Snow Depth -    
Sea Level Pressure  
Sea Level Pressure 30.29 in    
Wind  
Wind Speed 3 mph (West)    
Max Wind Speed 12 mph    
Max Gust Speed 17 mph    
Visibility 10 miles    
Events      
T = Trace of Precipitation, MM = Missing Value Source: NWS Daily Summary

Daily Weather History Graph

Daily Weather History Graph

Search for Another Location

Airport or City:

Trip Planner

Search our weather history database for the weather conditions in past years. The results will help you decide how hot, cold, wet, or windy it might be!

Date:

Astronomy

Jul. 14, 2013 Rise Set
Actual Time 5:38 AM EDT 8:27 PM EDT
Civil Twilight 5:06 AM EDT 8:59 PM EDT
Nautical Twilight 4:25 AM EDT 9:39 PM EDT
Astronomical Twilight 3:38 AM EDT 10:26 PM EDT
Moon 11:54 AM EDT (7/14) 11:35 PM EDT (7/14)
Length of Visible Light 15h 53m
Length of Day
14h 48m
Waxing Crescent, 35% of the Moon is Illuminated
Jul 14
Waxing Crescent
Jul 15
First Quarter
Jul 22
Full
Jul 29
Last Quarter
Aug 6
New

Hourly Weather History & Observations

Time (EDT) Temp. Heat Index Dew Point Humidity Pressure Visibility Wind Dir Wind Speed Gust Speed Precip Events Conditions
12:15 AM 76.3 °F - 74.3 °F 94% 30.28 in 7.0 mi Calm Calm - N/A   Scattered Clouds
12:35 AM 76.1 °F - 73.9 °F 93% 30.28 in 7.0 mi Calm Calm - N/A   Overcast
12:55 AM 76.1 °F - 74.3 °F 94% 30.28 in 7.0 mi Calm Calm - N/A   Overcast
1:15 AM 76.3 °F - 74.3 °F 94% 30.28 in 7.0 mi Calm Calm - N/A   Overcast
1:35 AM 76.6 °F - 74.7 °F 94% 30.29 in 7.0 mi Calm Calm - N/A   Overcast
1:55 AM 77.0 °F - 75.2 °F 94% 30.29 in 7.0 mi West 5.8 mph - N/A   Overcast
2:15 AM 77.0 °F - 75.2 °F 94% 30.29 in 10.0 mi Calm Calm - N/A   Overcast
2:35 AM 77.2 °F - 75.2 °F 94% 30.29 in 10.0 mi Calm Calm - N/A   Overcast
2:55 AM 77.4 °F - 75.0 °F 92% 30.30 in 10.0 mi Calm Calm - N/A   Overcast
3:15 AM 77.5 °F - 75.2 °F 92% 30.30 in 10.0 mi Calm Calm - N/A   Overcast
3:35 AM 77.4 °F - 75.2 °F 93% 30.30 in 10.0 mi Calm Calm - N/A   Overcast
3:55 AM 77.5 °F - 75.2 °F 92% 30.30 in 10.0 mi Calm Calm - N/A   Overcast
4:15 AM 77.9 °F - 75.2 °F 91% 30.30 in 10.0 mi Calm Calm - N/A   Overcast
4:35 AM 77.4 °F - 75.0 °F 92% 30.30 in 10.0 mi Calm Calm - N/A   Overcast
4:55 AM 77.4 °F - 75.2 °F 93% 30.31 in 10.0 mi Calm Calm - N/A   Overcast
5:15 AM 77.2 °F - 75.2 °F 94% 30.31 in 10.0 mi Calm Calm - N/A   Overcast
5:35 AM 77.2 °F - 75.2 °F 94% 30.32 in 10.0 mi Calm Calm - N/A   Overcast
5:55 AM 77.2 °F - 75.2 °F 94% 30.32 in 10.0 mi Calm Calm - N/A   Overcast
6:15 AM 77.2 °F - 75.2 °F 94% 30.32 in 10.0 mi Calm Calm - N/A   Overcast
6:35 AM 77.4 °F - 75.2 °F 93% 30.32 in 10.0 mi Calm Calm - N/A   Overcast
6:55 AM 77.2 °F - 75.2 °F 94% 30.33 in 7.0 mi Calm Calm - N/A   Overcast
7:15 AM 77.2 °F - 75.2 °F 94% 30.34 in 7.0 mi Calm Calm - N/A   Overcast
7:35 AM 77.2 °F - 75.0 °F 93% 30.34 in 7.0 mi Calm Calm - N/A   Overcast
7:55 AM 78.1 °F - 75.6 °F 92% 30.34 in 7.0 mi Calm Calm - N/A   Overcast
8:15 AM 79.0 °F - 75.2 °F 88% 30.34 in 10.0 mi WSW 4.6 mph - N/A   Mostly Cloudy
8:35 AM 80.8 °F 86.3 °F 74.8 °F 82% 30.34 in 10.0 mi WSW 4.6 mph - N/A   Scattered Clouds
8:55 AM 81.1 °F 87.0 °F 74.7 °F 81% 30.34 in 10.0 mi West 4.6 mph - N/A   Scattered Clouds
9:15 AM 82.0 °F 88.1 °F 74.3 °F 77% 30.33 in 10.0 mi WSW 8.1 mph - N/A   Scattered Clouds
9:35 AM 82.8 °F 89.2 °F 74.3 °F 75% 30.33 in 10.0 mi West 9.2 mph - N/A   Scattered Clouds
9:55 AM 83.7 °F 90.7 °F 74.1 °F 73% 30.33 in 10.0 mi West 9.2 mph - N/A   Scattered Clouds
10:15 AM 84.2 °F 90.9 °F 73.6 °F 70% 30.32 in 10.0 mi WNW 8.1 mph - N/A   Scattered Clouds
10:35 AM 83.5 °F 89.4 °F 72.9 °F 70% 30.32 in 10.0 mi West 6.9 mph - N/A   Scattered Clouds
10:55 AM 84.0 °F 90.2 °F 72.7 °F 69% 30.32 in 10.0 mi West 8.1 mph - N/A   Clear
11:15 AM 84.2 °F 90.3 °F 72.5 °F 68% 30.32 in 10.0 mi WSW 10.4 mph - N/A   Clear
11:35 AM 85.1 °F 91.8 °F 73.2 °F 67% 30.32 in 10.0 mi West 6.9 mph - N/A   Clear
11:55 AM 86.4 °F 93.8 °F 73.2 °F 65% 30.32 in 10.0 mi Calm Calm - N/A   Clear
12:15 PM 88.0 °F 95.6 °F 73.2 °F 61% 30.31 in 10.0 mi WNW 9.2 mph - N/A   Scattered Clouds
12:35 PM 88.7 °F 96.2 °F 72.5 °F 59% 30.31 in 10.0 mi West 8.1 mph - N/A   Clear
12:55 PM 88.3 °F 95.0 °F 72.0 °F 58% 30.30 in 10.0 mi WNW 6.9 mph - N/A   Scattered Clouds
1:15 PM 89.4 °F 95.8 °F 71.4 °F 55% 30.30 in 10.0 mi West 9.2 mph - N/A   Scattered Clouds
1:35 PM 89.6 °F 97.2 °F 72.3 °F 57% 30.30 in 10.0 mi West 6.9 mph - N/A   Scattered Clouds
1:55 PM 89.8 °F 96.5 °F 71.6 °F 55% 30.30 in 10.0 mi WSW 8.1 mph - N/A   Scattered Clouds
2:15 PM 89.6 °F 96.2 °F 71.4 °F 55% 30.29 in 10.0 mi West 10.4 mph - N/A   Scattered Clouds
2:35 PM 90.1 °F 96.8 °F 71.2 °F 54% 30.29 in 10.0 mi West 6.9 mph - N/A   Clear
2:55 PM 90.9 °F 96.7 °F 70.3 °F 51% 30.29 in 10.0 mi West 9.2 mph - N/A   Scattered Clouds
3:15 PM 91.2 °F 97.5 °F 70.7 °F 51% 30.28 in 10.0 mi West 6.9 mph 16.1 mph N/A   Scattered Clouds
3:35 PM 90.7 °F 95.9 °F 70.0 °F 50% 30.27 in 10.0 mi West 10.4 mph - N/A   Scattered Clouds
3:55 PM 91.8 °F 97.5 °F 70.2 °F 49% 30.27 in 10.0 mi West 8.1 mph 17.3 mph N/A   Scattered Clouds
4:15 PM 92.1 °F 98.3 °F 70.5 °F 49% 30.27 in 10.0 mi WNW 8.1 mph - N/A   Clear
4:35 PM 92.1 °F 97.7 °F 69.8 °F 48% 30.26 in 10.0 mi West 10.4 mph - N/A   Clear
4:55 PM 91.6 °F 97.7 °F 70.3 °F 50% 30.26 in 10.0 mi WSW 11.5 mph - N/A   Scattered Clouds
5:15 PM 91.8 °F 97.0 °F 69.8 °F 48% 30.25 in 10.0 mi WSW 8.1 mph - N/A   Scattered Clouds
5:35 PM 91.4 °F 96.8 °F 69.6 °F 49% 30.25 in 10.0 mi West 10.4 mph - N/A   Clear
5:55 PM 91.8 °F 96.5 °F 69.1 °F 47% 30.25 in 10.0 mi West 8.1 mph - N/A   Clear
6:15 PM 91.8 °F 96.5 °F 68.9 °F 47% 30.25 in 10.0 mi West 9.2 mph 16.1 mph N/A   Clear
6:35 PM 91.4 °F 95.8 °F 68.4 °F 47% 30.25 in 10.0 mi West 10.4 mph 16.1 mph N/A   Clear
6:55 PM 90.9 °F 94.8 °F 68.4 °F 47% 30.25 in 10.0 mi West 10.4 mph - N/A   Clear
7:15 PM 90.7 °F 95.0 °F 68.4 °F 48% 30.24 in 10.0 mi West 6.9 mph - N/A   Clear
7:35 PM 90.5 °F 94.6 °F 68.4 °F 48% 30.24 in 10.0 mi West 6.9 mph - N/A   Clear
7:55 PM 89.6 °F 93.9 °F 68.5 °F 50% 30.24 in 10.0 mi WSW 4.6 mph - N/A   Clear
8:15 PM 88.7 °F 93.0 °F 68.9 °F 52% 30.24 in 10.0 mi WSW 6.9 mph - N/A   Clear
8:35 PM 88.2 °F 92.5 °F 68.9 °F 53% 30.24 in 10.0 mi WSW 6.9 mph - N/A   Clear
8:55 PM 87.8 °F 91.8 °F 68.9 °F 53% 30.25 in 10.0 mi WSW 5.8 mph - N/A   Clear
9:15 PM 87.1 °F 91.3 °F 69.1 °F 55% 30.25 in 10.0 mi WSW 5.8 mph - N/A   Clear
9:35 PM 86.9 °F 91.7 °F 69.8 °F 57% 30.25 in 10.0 mi WSW 5.8 mph - N/A   Clear
9:55 PM 86.4 °F 91.1 °F 69.8 °F 58% 30.25 in 10.0 mi WSW 4.6 mph - N/A   Clear
10:15 PM 85.8 °F 90.8 °F 70.5 °F 60% 30.25 in 10.0 mi Calm Calm - N/A   Clear
10:35 PM 85.1 °F 90.4 °F 71.2 °F 63% 30.25 in 10.0 mi Calm Calm - N/A   Clear
10:55 PM 84.7 °F 90.4 °F 71.8 °F 65% 30.25 in 10.0 mi WSW 3.5 mph - N/A   Clear
11:15 PM 83.8 °F 89.5 °F 72.1 °F 68% 30.25 in 10.0 mi Calm Calm - N/A   Clear
11:35 PM 83.7 °F 89.4 °F 72.5 °F 69% 30.25 in 10.0 mi WSW 4.6 mph - N/A   Clear
11:55 PM 83.3 °F 88.7 °F 72.3 °F 69% 30.25 in 10.0 mi West 4.6 mph - N/A   Clear